Temperature
14 14 15 15 12 11 12 13 15 17 18 19 20 20 18 18 19 18 18 18 18 17 17 16 16 16 16 16 16 16 16 16 16 16 16 15 15 15 15 15 15 15 15 15 15 15 14 14 15
14 14 15 14 11 12 12 13 15 17 19 20 20 20 18 18 18 18 17 17 17 17 17 16 16 16 16 16 16 16 16 16 15 15 15 15 15 15 15 15 15 15 15 14 14 14 14 14 14
13 14 14 10 11 12 14 15 16 17 19 19 19 19 19 18 18 18 18 17 17 17 16 16 16 16 16 16 16 15 15 15 15 15 15 15 15 15 15 15 15 15 14 14 14 14 14 14 14
13 14 13 10 12 12 14 16 16 17 19 19 19 18 18 17 17 18 18 17 17 16 16 16 16 16 16 16 15 15 15 15 15 15 15 15 15 15 15 14 14 15 14 14 14 14 14 14 14
13 13 10 10 11 12 13 16 17 16 17 18 18 17 17 17 17 17 17 17 17 16 16 15 15 15 15 15 15 15 15 15 15 15 15 15 15 14 14 14 14 14 14 14 14 14 14 13 13
12 11 10 10 12 13 14 16 17 16 17 18 18 16 16 16 17 17 17 16 16 16 16 15 15 15 15 15 15 15 15 15 15 15 14 14 14 14 14 14 14 14 14 14 14 14 13 13 13
11 9 10 11 12 13 14 17 16 15 16 17 18 15 15 15 16 16 16 16 15 15 15 15 15 15 15 15 15 15 15 14 14 14 14 14 14 14 14 14 14 14 14 14 14 13 13 13 13
12 9 10 10 12 13 15 16 16 16 16 17 17 15 14 15 15 15 15 15 15 15 15 14 14 14 14 14 14 14 14 14 14 14 14 14 14 14 14 14 14 14 14 13 13 13 13 13 13
12 9 9 11 12 13 14 15 16 16 16 15 15 15 15 15 14 14 14 14 14 14 14 14 14 14 14 14 14 14 14 14 14 14 14 14 14 13 13 13 13 13 13 13 13 13 13 13 13
11 8 10 11 12 13 13 14 15 14 14 14 14 14 14 14 14 14 14 13 13 13 13 13 13 13 13 13 13 14 14 14 14 13 13 13 13 13 13 13 13 13 13 13 13 13 13 13 12
10 9 10 11 13 13 13 13 13 13 12 12 13 13 13 13 13 13 13 13 13 13 13 13 13 13 13 13 13 13 13 13 13 13 13 13 13 13 13 13 13 13 13 12 12 12 12 12 12
9 9 10 11 12 12 12 12 12 12 12 13 13 13 12 12 12 12 12 12 12 12 13 13 13 13 13 13 13 13 13 13 13 13 13 13 13 13 13 13 12 12 12 12 12 12 12 12 12
9 9 10 11 11 11 11 11 10 10 11 12 12 12 11 11 12 12 12 12 12 12 12 12 12 12 12 12 12 13 13 13 13 13 13 13 13 12 12 12 12 12 12 12 12 12 12 12 12
9 9 10 10 10 10 10 9 9 9 10 11 11 10 10 10 11 11 11 11 11 11 11 11 11 12 12 12 12 12 13 13 13 12 12 12 12 12 12 12 12 12 12 12 12 12 12 12 12
9 8 8 9 10 10 9 8 8 9 9 9 9 9 9 9 10 10 10 11 11 11 11 11 11 11 11 12 12 12 12 12 12 12 12 12 12 12 12 12 12 12 11 11 11 11 11 11 11
7 7 7 8 9 9 8 7 7 8 8 8 8 8 8 8 8 9 9 10 10 10 10 10 11 11 11 11 11 12 12 12 12 12 12 12 12 12 12 12 12 11 11 11 11 11 11 11 11
5 5 6 7 8 8 7 6 6 7 7 6 6 6 6 7 7 8 8 9 9 9 10 10 10 10 10 10 11 11 11 11 11 11 11 11 11 11 11 11 11 11 11 11 11 11 11 11 11
4 5 6 6 7 7 6 5 5 6 5 5 5 5 5 5 6 7 7 8 8 9 9 9 9 10 10 10 10 11 11 11 11 11 11 11 11 11 11 11 11 11 11 11 11 11 11 11 11
5 5 5 5 6 6 5 4 4 5 4 4 3 3 4 4 5 5 6 7 8 8 8 9 9 9 9 9 10 10 10 10 10 10 11 11 11 11 11 11 11 11 11 11 11 10 10 10 10
5 4 4 5 6 6 4 4 3 3 3 3 3 3 3 3 4 5 5 6 6 7 7 8 8 8 9 9 9 9 9 10 10 10 10 10 10 10 11 11 11 11 11 10 10 10 10 10 10
4 3 4 4 5 5 4 3 3 3 3 3 3 3 3 3 3 3 4 5 5 6 6 7 7 8 8 8 8 9 9 9 9 9 10 10 10 10 10 10 10 10 10 10 10 10 10 10 10
3 4 4 4 3 3 4 3 2 2 2 2 2 2 2 2 2 2 3 4 4 5 5 6 6 7 7 8 8 8 8 9 9 9 9 9 9 9 10 10 10 10 10 10 10 10 10 10 10
3 3 3 3 3 2 2 2 1 1 1 0 -0 -0 0 1 1 2 2 3 3 4 5 5 5 6 6 7 7 7 8 8 8 9 9 9 9 9 9 9 10 10 10 10 10 10 10 10 10
3 2 2 2 2 2 2 1 0 -1 -1 -1 -2 -2 -1 -1 0 1 2 2 3 3 4 4 5 5 6 6 6 7 7 7 8 8 8 8 8 9 9 9 9 9 10 10 9 9 9 9 9
1 1 0 1 1 1 1 0 -1 -2 -2 -2 -2 -2 -2 -2 -1 -0 1 1 2 2 3 3 4 4 5 5 6 6 6 7 7 7 8 8 8 8 8 8 9 9 9 9 9 9 9 9 9
0 0 -0 0 1 0 -0 -1 -2 -2 -2 -2 -3 -3 -3 -2 -2 -1 -1 -0 1 1 2 2 3 3 4 4 5 5 5 6 6 7 7 7 8 8 8 8 8 8 9 9 9 9 9 9 9
-0 -0 -1 -1 -1 -1 -1 -2 -2 -2 -3 -3 -4 -4 -4 -3 -3 -2 -1 -1 -0 0 1 1 2 3 3 3 4 4 5 5 6 6 6 7 7 7 8 8 8 8 8 8 8 9 8 8 8
-1 -1 -2 -2 -1 -1 -2 -3 -3 -4 -4 -4 -5 -5 -5 -4 -3 -2 -2 -1 -1 -0 0 1 1 2 2 2 3 3 4 4 5 5 6 6 6 7 7 7 7 8 8 8 8 8 8 8 8
-2 -3 -3 -3 -3 -2 -2 -3 -4 -4 -5 -5 -5 -5 -5 -5 -4 -3 -3 -2 -2 -1 -1 -0 0 1 1 2 2 3 3 4 4 5 5 5 6 6 6 7 7 7 7 7 8 8 8 8 8
-3 -4 -4 -3 -4 -4 -4 -4 -4 -5 -5 -5 -5 -5 -5 -5 -4 -4 -3 -3 -2 -2 -1 -1 -1 0 0 1 1 2 2 3 3 4 4 5 5 5 6 6 6 6 7 7 7 7 7 7 7
Wind_Speed
6 5 3 4 5 3 4 6 4 3 3 3 2 5 7 5 4 4 3 11 14 15 17 20 20 20 19 18 18 17 17 16 16 16 16 16 16 16 16 16 15 16 16 16 16 16 16 16 16
3 2 4 5 5 3 6 6 6 7 5 2 2 3 5 3 2 7 6 11 16 16 17 18 20 20 19 19 18 17 17 16 16 15 15 15 15 15 15 15 15 16 16 16 16 15 15 15 15
3 1 4 4 5 8 6 6 8 6 3 2 1 3 4 4 4 5 8 15 15 14 16 18 20 19 19 18 18 17 16 16 15 15 15 15 15 15 15 15 16 15 15 16 15 14 14 14 14
3 4 4 3 7 7 6 5 4 2 2 1 3 3 3 1 3 6 13 16 15 13 15 18 20 19 18 18 17 17 16 16 15 15 14 14 15 15 14 15 15 15 15 15 15 14 13 13 13
3 4 3 3 7 5 5 6 4 3 2 1 3 4 2 5 5 11 14 15 15 12 14 18 19 18 18 17 17 17 16 16 15 15 15 14 14 14 14 14 15 14 14 15 14 14 13 12 13
3 3 3 6 7 5 5 5 2 2 2 1 3 5 2 2 7 10 12 12 13 12 13 16 19 18 17 17 17 16 16 16 15 15 15 14 14 14 14 14 14 14 14 14 14 13 12 12 13
4 4 5 5 5 5 4 3 3 3 2 3 3 6 2 2 4 9 11 11 11 11 10 11 15 16 17 16 16 16 16 15 15 15 15 14 14 14 13 14 13 13 13 13 13 12 12 12 12
4 4 3 4 5 5 3 1 1 3 3 1 3 7 4 3 5 9 10 10 9 9 8 8 10 12 14 14 16 16 15 15 15 15 15 15 14 13 13 13 13 13 13 13 12 12 12 12 12
3 2 5 5 5 3 1 0 2 1 3 3 3 3 4 7 9 10 9 7 7 7 6 7 7 9 11 13 14 14 15 15 15 14 15 14 12 12 12 12 13 13 13 12 12 11 11 12 11
3 6 7 4 2 1 1 0 1 2 3 3 5 5 6 8 10 10 10 9 8 7 5 5 6 7 9 9 11 11 12 12 12 12 12 11 11 11 11 12 12 12 12 12 11 10 10 10 10
5 6 4 3 3 2 1 2 2 3 1 2 4 4 6 7 7 8 7 7 7 6 6 5 6 7 7 6 8 8 9 10 11 12 12 11 10 10 9 9 9 10 11 10 9 9 8 8 8
3 4 4 3 4 3 2 1 2 1 2 2 4 7 7 7 6 6 6 5 4 4 4 4 5 6 6 6 6 7 7 8 8 11 12 11 8 7 7 7 7 8 8 8 8 8 7 8 9
5 4 4 4 4 2 2 1 0 1 1 3 5 7 7 6 4 3 4 4 4 4 3 2 3 5 5 5 5 6 6 7 9 10 12 12 8 6 7 7 7 7 8 9 8 7 7 7 8
4 3 4 4 4 3 1 3 1 2 2 5 6 6 5 4 4 4 3 3 3 3 2 2 3 3 4 4 4 5 6 7 8 10 11 12 11 8 7 6 6 7 8 9 9 7 6 6 7
2 3 5 4 3 2 1 4 2 2 3 4 4 4 4 4 5 4 3 2 2 2 2 2 2 2 3 4 5 5 5 7 7 8 11 12 11 10 8 6 6 7 9 9 8 7 6 5 5
1 1 4 4 2 1 3 4 4 2 3 3 3 4 4 5 5 4 4 4 3 3 2 2 1 2 2 2 3 4 5 5 6 7 9 11 12 12 9 6 6 8 9 8 5 5 4 4 4
0 3 5 3 1 1 3 3 3 3 4 3 3 4 4 5 6 6 5 4 3 3 3 3 2 2 1 1 3 3 4 4 5 7 7 9 11 12 10 7 7 9 8 6 5 4 4 5 4
4 4 4 4 2 1 2 1 2 4 5 4 3 3 3 4 4 5 5 4 4 4 3 3 3 3 2 1 1 2 2 2 4 5 6 8 9 12 11 8 8 9 6 4 5 5 4 4 5
4 4 5 4 2 0 2 1 2 3 4 4 4 4 3 2 4 4 4 4 5 5 4 4 4 3 2 1 1 2 3 2 2 2 5 7 8 10 10 7 7 7 5 6 6 4 5 3 4
2 3 3 3 3 1 2 0 2 3 4 3 3 3 3 4 5 5 5 5 4 4 4 3 3 3 2 1 1 2 3 2 2 2 3 5 7 8 9 9 7 7 6 6 6 5 4 3 3
3 3 3 4 4 1 2 1 1 2 4 5 5 4 4 4 4 5 5 5 4 4 3 2 2 3 3 3 2 1 1 1 0 1 2 2 5 6 6 8 8 7 7 7 6 6 6 5 3
4 4 4 3 1 3 3 3 1 0 3 6 7 7 6 6 5 5 5 5 5 4 3 2 2 2 3 3 1 0 1 2 2 3 3 2 3 4 5 7 8 8 6 7 7 6 4 6 5
4 6 5 4 3 2 1 3 2 2 3 6 8 9 8 8 6 6 5 4 5 5 4 4 3 3 3 3 1 0 1 1 1 1 2 3 2 3 4 5 7 8 7 7 6 5 5 5 5
4 3 2 1 2 2 3 4 1 2 4 6 9 10 11 10 9 7 6 5 5 6 5 5 4 4 4 3 2 1 1 1 1 2 2 2 2 2 3 4 5 7 6 7 7 7 7 5 5
6 3 2 2 0 3 1 4 1 3 5 6 7 9 10 10 10 10 9 7 6 6 6 5 5 5 5 3 2 2 2 1 3 3 3 3 2 2 4 3 4 5 6 7 7 7 7 6 7
4 2 2 2 2 2 2 2 1 4 5 7 7 8 10 11 11 10 10 8 6 6 6 6 5 5 5 4 3 2 2 1 2 3 3 3 3 3 4 5 4 5 6 6 6 6 6 6 6
3 2 1 2 1 1 1 1 1 6 9 10 11 12 12 12 12 11 9 9 8 6 5 5 5 5 5 5 5 3 3 2 3 3 2 2 2 2 2 4 4 4 6 6 6 5 6 6 6
3 1 3 2 0 1 2 1 1 5 8 10 11 11 12 12 11 11 9 9 9 8 6 5 5 5 5 5 4 4 4 3 3 2 3 2 2 2 2 3 4 4 5 6 6 5 5 6 6
6 4 3 1 1 1 2 3 0 1 4 7 8 9 10 11 10 9 8 8 8 8 7 7 6 6 5 5 4 5 4 3 3 2 3 3 2 2 3 3 3 4 5 5 5 5 6 7 6
2 2 2 1 2 0 1 3 2 3 4 5 7 9 9 9 9 8 8 8 8 8 8 8 7 7 6 5 5 4 4 4 3 3 3 3 3 3 3 3 3 4 5 5 6 6 6 7 7
Wind_Direction
317 339 62 60 64 65 229 240 228 240 226 219 176 129 127 131 150 162 135 138 137 146 152 151 150 146 142 138 135 132 130 127 126 124 121 121 121 120 120 119 116 114 110 109 107 104 101 100 101
337 19 58 68 114 184 249 236 224 229 215 193 136 115 99 96 98 118 128 145 142 145 149 150 148 146 143 140 138 137 134 131 129 127 126 125 123 123 122 121 118 115 113 112 110 108 104 102 102
340 61 91 98 161 195 214 224 217 237 252 220 126 81 113 131 133 147 153 144 138 142 146 150 148 146 144 143 141 140 137 135 133 131 130 128 126 124 123 123 120 117 115 114 113 111 107 103 102
62 55 68 117 219 222 206 218 208 227 304 297 130 80 66 47 163 149 140 139 137 139 145 150 148 147 146 145 144 142 140 138 136 134 133 131 129 127 124 124 122 120 119 118 117 113 108 104 102
71 91 113 223 236 241 233 244 226 205 217 250 128 119 52 350 95 123 135 138 140 141 144 150 149 148 147 147 146 144 144 143 140 139 136 133 132 131 128 125 124 124 124 123 121 116 111 105 102
79 94 151 222 235 245 247 243 215 209 221 225 129 125 113 35 104 128 132 135 138 141 143 151 151 149 149 148 147 145 144 144 142 141 139 136 134 135 133 131 130 128 128 126 122 118 113 106 102
134 140 194 211 228 245 245 226 191 201 214 231 153 126 122 52 118 129 126 125 127 132 137 145 151 151 151 150 148 145 145 144 142 141 138 136 135 135 137 138 136 134 130 127 125 120 115 109 103
147 140 207 216 210 234 262 230 185 169 212 264 122 137 163 189 126 115 113 116 123 128 132 136 144 148 148 149 148 147 146 145 143 139 135 134 135 136 137 141 140 137 134 131 128 125 121 115 107
121 150 217 210 198 226 263 133 323 75 100 56 53 121 149 134 116 108 107 109 120 131 136 137 135 136 143 150 152 148 147 146 143 139 136 133 132 134 136 139 139 140 139 136 132 128 124 118 110
147 203 222 216 203 219 319 296 277 70 64 49 42 43 86 108 119 124 130 137 140 144 144 144 143 141 139 150 148 147 146 146 144 142 140 136 134 136 137 140 142 141 139 138 137 132 124 118 109
180 205 228 273 279 290 292 313 340 127 118 182 144 120 110 107 116 130 137 143 153 155 148 149 147 145 142 139 146 147 146 146 145 146 144 140 135 134 134 135 139 141 139 134 133 125 122 120 117
211 239 233 279 318 323 298 315 6 69 197 187 144 137 123 119 127 131 133 131 135 142 144 150 148 144 144 144 148 151 152 152 152 154 150 143 137 136 139 137 141 139 138 133 131 127 125 123 121
231 255 264 282 315 323 1 329 79 314 323 75 93 102 108 114 118 114 120 119 117 123 123 129 147 148 145 144 153 150 154 161 161 158 157 152 146 147 146 145 145 145 144 142 136 131 127 124 122
231 258 282 276 276 298 13 323 38 293 61 78 88 98 102 104 102 80 73 95 108 122 129 138 132 140 146 150 155 156 157 159 162 164 165 160 156 155 154 149 147 151 153 151 145 140 133 126 124
280 289 299 279 254 232 74 326 281 283 86 85 87 89 76 65 60 60 54 63 87 114 118 126 139 115 145 155 158 155 160 160 160 167 171 165 161 160 158 155 153 158 156 149 139 132 126 120 117
308 269 259 276 251 256 133 260 320 348 105 107 86 75 73 55 47 37 34 41 46 56 75 89 117 100 122 157 160 157 159 160 164 167 169 169 165 162 157 155 160 160 154 147 135 133 126 123 125
14 235 239 278 262 157 158 238 321 16 89 87 74 70 64 40 28 21 23 32 43 50 61 57 44 74 94 153 167 158 153 158 163 167 166 169 168 165 160 160 161 157 148 144 145 139 136 135 129
225 230 235 244 305 138 168 228 356 33 82 84 60 52 55 36 12 12 14 18 31 40 44 50 44 39 36 83 136 150 133 148 149 160 170 168 167 166 161 159 159 154 149 150 146 140 131 138 136
222 231 251 259 298 351 165 161 344 12 59 62 48 40 34 5 357 14 18 14 26 29 33 40 32 21 38 55 172 180 184 187 166 159 171 169 167 166 163 161 159 158 164 164 152 137 134 132 130
257 241 262 281 294 280 169 63 7 29 59 75 63 41 18 6 7 9 15 15 21 26 21 25 24 15 10 331 249 224 192 191 187 166 159 164 168 168 169 164 166 163 161 159 157 144 140 146 154
296 221 239 258 307 266 169 295 350 28 54 43 40 36 23 16 3 357 2 2 11 14 6 360 359 357 356 360 13 28 89 114 174 182 184 177 170 168 166 167 165 166 166 172 172 161 152 162 183
273 273 271 259 236 246 194 212 260 27 34 24 20 18 9 360 358 357 358 1 3 354 350 350 353 357 360 8 20 104 197 198 221 214 205 194 171 169 168 171 168 170 172 174 178 171 164 159 172
267 287 272 249 210 234 233 169 276 23 15 8 11 11 7 0 0 359 356 352 357 0 1 356 351 354 360 1 0 346 304 249 222 203 197 192 189 176 170 173 175 175 177 178 177 170 171 168 171
316 334 325 117 127 218 226 164 272 12 359 359 4 5 4 0 355 353 353 358 5 8 10 7 1 356 353 354 353 349 323 325 232 198 203 203 204 203 188 181 180 179 180 182 184 181 180 181 175
24 55 24 4 223 235 85 115 176 16 20 17 6 358 358 2 2 360 1 4 6 8 6 1 360 356 348 341 335 319 294 265 242 221 211 209 208 221 211 196 195 187 185 184 183 183 187 185 183
348 78 140 226 234 297 23 135 150 35 28 20 13 3 3 3 1 1 1 359 357 2 2 359 353 349 344 335 322 308 301 270 268 260 234 221 222 226 217 203 203 197 187 186 183 185 188 187 189
16 12 229 157 304 276 290 58 309 18 15 11 8 6 1 356 355 355 359 0 357 355 354 348 344 346 343 338 336 320 313 301 290 290 262 236 238 240 225 210 207 204 192 188 184 190 191 188 192
39 24 49 76 30 286 307 279 302 344 354 357 358 355 351 350 352 354 355 354 355 352 347 345 345 340 337 336 337 330 322 316 306 295 286 262 250 238 225 223 212 211 200 193 191 191 190 191 196
11 26 30 70 142 183 255 278 312 4 351 347 344 346 345 345 347 349 349 349 352 352 349 347 348 349 345 342 337 333 329 327 328 306 293 281 263 240 229 233 227 222 211 198 197 197 190 195 198
78 40 52 103 308 204 187 265 37 39 0 349 343 344 342 344 347 348 350 352 354 353 351 350 348 346 339 336 334 329 329 331 328 318 309 304 277 261 245 236 233 236 224 204 199 199 196 198 200
Height
1511 1512 1514 1516 1520 1530 1528 1520 1511 1507 1505 1502 1502 1502 1503 1506 1510 1515 1512 1512 1514 1517 1521 1524 1527 1529 1531 1533 1535 1537 1539 1541 1542 1543 1545 1546 1546 1547 1548 1549 1550 1551 1551 1552 1552 1553 1554 1555 1555
1511 1512 1515 1516 1524 1533 1526 1514 1509 1503 1501 1501 1502 1502 1502 1505 1506 1508 1509 1512 1515 1517 1520 1523 1527 1529 1531 1533 1535 1537 1539 1541 1542 1544 1545 1546 1547 1548 1549 1550 1551 1552 1552 1553 1554 1555 1555 1556 1557
1510 1512 1514 1517 1524 1523 1517 1507 1503 1500 1500 1501 1501 1502 1503 1505 1506 1507 1509 1512 1515 1518 1521 1524 1527 1529 1531 1533 1535 1538 1539 1541 1543 1544 1545 1547 1548 1549 1550 1551 1552 1552 1553 1554 1555 1556 1557 1558 1558
1510 1512 1514 1519 1518 1512 1506 1501 1500 1500 1500 1500 1501 1503 1504 1507 1507 1508 1510 1512 1515 1518 1521 1524 1526 1529 1531 1533 1535 1537 1539 1541 1543 1544 1546 1547 1548 1549 1551 1552 1552 1553 1554 1555 1556 1557 1558 1559 1560
1509 1510 1516 1519 1513 1507 1502 1499 1499 1500 1500 1500 1500 1502 1505 1507 1507 1508 1510 1513 1515 1518 1521 1524 1526 1529 1531 1533 1535 1537 1539 1541 1543 1545 1546 1547 1549 1550 1551 1552 1553 1554 1555 1556 1557 1558 1559 1560 1561
1508 1509 1518 1517 1509 1503 1499 1498 1498 1499 1499 1500 1500 1502 1505 1507 1507 1509 1511 1513 1516 1518 1521 1524 1526 1529 1531 1533 1535 1537 1539 1541 1543 1544 1546 1548 1549 1550 1551 1552 1554 1555 1556 1557 1558 1559 1560 1561 1562
1507 1510 1513 1510 1506 1503 1498 1497 1498 1498 1499 1500 1500 1502 1505 1507 1508 1510 1511 1514 1516 1518 1521 1524 1526 1528 1531 1533 1535 1537 1539 1541 1543 1544 1546 1548 1549 1550 1551 1553 1554 1555 1556 1558 1559 1560 1561 1562 1563
1504 1508 1508 1507 1504 1501 1497 1496 1496 1497 1498 1499 1500 1501 1504 1506 1508 1510 1512 1514 1516 1518 1521 1523 1526 1528 1530 1532 1534 1536 1538 1540 1542 1544 1546 1547 1549 1550 1551 1553 1554 1555 1557 1558 1559 1560 1561 1563 1564
1503 1509 1507 1503 1500 1498 1495 1496 1496 1497 1498 1499 1500 1501 1503 1505 1507 1509 1511 1514 1516 1518 1520 1522 1524 1527 1529 1531 1534 1536 1538 1540 1542 1544 1545 1547 1548 1550 1551 1553 1554 1555 1557 1558 1560 1561 1562 1563 1564
1501 1505 1500 1497 1496 1496 1495 1495 1496 1497 1497 1499 1499 1501 1502 1504 1505 1507 1509 1511 1513 1516 1519 1521 1523 1525 1528 1530 1532 1535 1537 1539 1541 1543 1544 1546 1548 1549 1551 1553 1554 1555 1557 1558 1559 1561 1562 1563 1564
1498 1499 1497 1495 1495 1495 1495 1496 1496 1496 1499 1499 1499 1500 1502 1503 1505 1506 1508 1510 1513 1515 1517 1519 1522 1524 1526 1528 1531 1533 1535 1537 1540 1542 1543 1545 1547 1548 1550 1551 1553 1555 1556 1557 1559 1560 1562 1563 1564
1497 1495 1495 1495 1495 1494 1495 1496 1497 1497 1499 1499 1499 1499 1501 1502 1504 1505 1507 1509 1512 1514 1516 1518 1520 1523 1525 1527 1529 1531 1534 1536 1538 1540 1542 1544 1545 1547 1549 1551 1552 1554 1555 1557 1558 1560 1561 1563 1564
1495 1494 1494 1494 1494 1494 1494 1495 1497 1498 1499 1499 1498 1499 1500 1502 1503 1505 1507 1509 1510 1512 1514 1516 1519 1521 1523 1525 1528 1530 1532 1534 1536 1538 1540 1542 1544 1546 1547 1549 1551 1553 1555 1556 1558 1559 1561 1562 1564
1493 1493 1493 1493 1493 1494 1494 1496 1497 1497 1498 1498 1498 1499 1500 1501 1503 1504 1506 1507 1508 1510 1512 1514 1517 1519 1521 1523 1526 1528 1530 1532 1535 1537 1539 1541 1542 1544 1546 1548 1550 1552 1554 1556 1557 1559 1560 1562 1563
1493 1494 1493 1492 1492 1493 1494 1497 1498 1498 1497 1497 1498 1499 1500 1501 1502 1502 1504 1506 1507 1509 1511 1513 1514 1517 1519 1521 1523 1526 1528 1530 1532 1535 1537 1539 1540 1542 1544 1546 1548 1550 1552 1554 1556 1558 1560 1561 1562
1494 1496 1498 1493 1492 1493 1498 1501 1498 1497 1497 1497 1498 1499 1500 1500 1501 1502 1503 1504 1506 1507 1509 1511 1512 1514 1516 1518 1520 1523 1526 1528 1530 1532 1534 1536 1539 1540 1542 1545 1546 1549 1551 1553 1555 1556 1558 1560 1561
1498 1501 1498 1495 1492 1493 1497 1500 1499 1498 1497 1497 1498 1499 1499 1499 1500 1501 1502 1503 1504 1506 1507 1509 1510 1512 1514 1516 1517 1520 1523 1525 1528 1530 1532 1534 1536 1538 1540 1542 1544 1547 1549 1551 1553 1555 1556 1558 1560
1501 1501 1498 1497 1494 1495 1498 1501 1500 1499 1498 1498 1499 1499 1499 1499 1500 1500 1501 1502 1503 1504 1505 1507 1508 1509 1511 1513 1515 1517 1520 1523 1525 1527 1529 1531 1533 1535 1538 1540 1542 1544 1546 1549 1551 1553 1554 1556 1558
1497 1497 1498 1497 1495 1496 1499 1501 1501 1499 1499 1499 1500 1500 1499 1499 1500 1500 1500 1500 1501 1502 1502 1504 1505 1507 1509 1510 1512 1513 1516 1519 1522 1524 1526 1528 1530 1532 1534 1536 1539 1541 1543 1546 1548 1550 1552 1554 1556
1497 1498 1499 1497 1495 1496 1500 1502 1502 1501 1501 1501 1500 1500 1500 1499 1498 1498 1498 1498 1498 1499 1500 1501 1503 1504 1506 1507 1509 1511 1513 1516 1518 1521 1523 1525 1527 1529 1531 1533 1535 1538 1540 1543 1545 1547 1549 1551 1553
1498 1499 1499 1498 1496 1495 1498 1503 1503 1502 1502 1501 1501 1501 1500 1499 1498 1497 1497 1497 1497 1497 1498 1499 1500 1502 1503 1505 1507 1509 1510 1513 1515 1517 1519 1521 1523 1526 1528 1530 1532 1535 1537 1539 1542 1544 1546 1548 1550
1500 1497 1496 1495 1499 1502 1498 1505 1506 1503 1503 1502 1502 1501 1500 1500 1498 1497 1497 1496 1496 1496 1497 1498 1499 1500 1501 1502 1504 1505 1506 1508 1510 1513 1515 1517 1520 1522 1524 1526 1529 1531 1533 1536 1538 1541 1543 1545 1547
1499 1496 1495 1495 1499 1503 1501 1505 1510 1506 1506 1506 1506 1504 1502 1501 1499 1497 1496 1496 1495 1495 1495 1496 1497 1498 1499 1500 1501 1502 1504 1505 1508 1510 1512 1514 1516 1519 1521 1523 1525 1528 1530 1532 1535 1537 1539 1541 1544
1498 1497 1495 1497 1501 1505 1502 1505 1513 1514 1513 1511 1509 1506 1504 1501 1499 1497 1495 1494 1494 1493 1493 1494 1494 1495 1496 1498 1499 1500 1501 1502 1504 1506 1508 1510 1512 1515 1517 1520 1522 1524 1526 1529 1531 1533 1536 1538 1540
1502 1506 1509 1507 1508 1505 1503 1509 1519 1517 1516 1514 1511 1508 1505 1502 1499 1496 1494 1493 1492 1491 1492 1492 1492 1493 1494 1495 1496 1497 1498 1499 1501 1503 1505 1507 1509 1511 1513 1515 1518 1520 1522 1525 1527 1530 1532 1534 1536
1508 1509 1515 1515 1509 1509 1508 1515 1521 1518 1517 1515 1512 1509 1505 1501 1498 1496 1494 1492 1491 1491 1491 1491 1490 1491 1491 1492 1493 1495 1496 1497 1498 1500 1501 1503 1505 1507 1509 1512 1514 1516 1518 1521 1523 1525 1528 1530 1532
1511 1512 1513 1517 1516 1517 1516 1520 1519 1518 1516 1514 1512 1508 1505 1502 1499 1496 1494 1492 1491 1490 1490 1490 1489 1489 1489 1490 1490 1491 1493 1493 1495 1496 1498 1500 1501 1504 1506 1508 1510 1512 1514 1516 1519 1521 1523 1525 1528
1515 1516 1518 1520 1519 1518 1519 1523 1525 1521 1519 1517 1514 1511 1507 1504 1499 1496 1494 1492 1490 1489 1489 1488 1488 1487 1487 1487 1488 1488 1489 1490 1492 1493 1494 1496 1498 1500 1502 1504 1506 1507 1510 1512 1514 1516 1519 1521 1523
1522 1522 1523 1523 1523 1523 1526 1530 1524 1524 1522 1520 1516 1513 1509 1505 1500 1497 1495 1492 1490 1489 1487 1486 1485 1485 1485 1485 1485 1486 1486 1487 1488 1489 1491 1492 1494 1495 1497 1499 1501 1503 1505 1506 1509 1511 1514 1516 1519
1525 1527 1527 1528 1530 1531 1533 1535 1524 1524 1522 1520 1517 1514 1510 1505 1501 1498 1495 1492 1490 1488 1486 1484 1483 1483 1483 1482 1482 1483 1483 1484 1484 1485 1486 1488 1489 1491 1493 1494 1496 1498 1500 1502 1504 1506 1509 1511 1514